CAPE
0 0 0 0 0 0 0 0 0 0 0 0 0 0 0 0 0 0 0 0 0 0 0 358 1549 1532 1413 1560 1461 1270 1397 1297 1382 1322 754 643 646 743 687 523 353 97 65 91 175 336 601 388 735
0 0 0 0 0 0 0 0 0 0 0 0 0 0 0 0 0 0 0 0 179 568 154 150 1395 1491 1380 1231 1361 1323 1334 1286 1285 1225 1130 767 670 640 765 856 709 543 228 143 350 675 775 489 566
0 0 0 0 0 0 0 0 0 0 0 0 0 0 0 0 0 0 0 0 16 44 538 675 1099 1147 1363 1285 1066 1099 1337 1315 1200 1145 1027 1038 872 782 852 1028 1087 1107 985 878 747 740 978 871 813
0 0 0 0 0 0 0 0 0 0 0 0 0 0 0 0 0 0 0 0 0 0 21 524 1052 825 1209 1079 1006 971 923 1054 1142 1163 1140 1139 1195 989 913 1165 1229 1209 1065 658 672 708 956 1204 1019
0 0 0 0 0 0 0 0 0 0 0 0 0 0 0 0 0 0 0 0 0 0 0 0 324 1105 932 966 1141 1034 1008 1067 934 1050 1127 1076 1186 1324 1266 1203 1249 1144 1078 829 767 833 759 776 832
0 0 0 0 0 0 0 0 0 0 0 0 0 0 0 0 0 0 0 0 0 0 0 0 1 134 382 602 913 1212 1189 1175 1131 1228 1242 1243 1322 1410 1472 1306 1038 1012 1087 888 806 956 776 695 675
0 0 0 0 0 0 0 0 0 0 0 0 0 0 0 0 0 0 0 0 0 0 0 0 0 0 4 116 172 250 744 1014 1161 1215 1197 1155 1243 1315 1194 1265 1175 863 1093 1108 1133 897 851 647 722
0 0 0 0 0 0 0 0 0 0 0 0 0 0 0 0 0 0 0 0 0 0 0 0 0 0 0 0 0 7 22 190 418 487 382 321 558 819 1193 974 950 983 1051 1058 953 867 706 620 606
0 0 0 0 0 0 0 0 0 0 0 0 0 0 0 0 0 0 0 0 0 0 0 0 0 0 0 0 0 0 0 0 64 154 112 85 121 287 516 575 840 871 816 710 547 337 139 148 318
0 0 0 0 0 0 0 0 0 0 0 0 0 0 0 0 0 0 0 0 0 0 0 0 0 0 0 0 0 0 0 0 0 0 13 62 68 80 198 387 546 693 668 508 299 39 176 106 60
0 0 0 0 0 0 0 0 0 0 0 0 0 0 0 0 0 0 0 0 0 0 0 0 0 0 0 0 0 0 0 0 0 0 0 36 68 66 113 161 192 232 246 323 283 197 132 30 16
0 0 0 0 0 0 0 0 0 0 0 0 0 0 0 0 0 0 0 0 0 0 0 0 0 0 0 0 0 0 0 0 0 0 0 0 3 42 94 106 117 50 67 93 39 23 2 0 0
0 0 0 0 0 0 0 0 0 0 0 0 0 0 0 0 0 0 0 0 0 0 0 0 0 0 0 0 0 0 0 0 0 0 0 0 0 0 0 9 22 24 2 2 0 0 2 2 0
0 0 0 0 0 0 0 0 0 0 0 0 0 0 0 0 0 0 0 0 0 0 0 0 0 0 0 0 0 0 0 0 0 0 0 0 1 0 1 1 2 2 1 2 21 0 50 5 0
0 0 0 0 0 0 0 0 0 0 0 0 0 0 0 0 0 0 0 0 0 0 0 0 0 0 0 0 0 0 0 0 0 0 0 0 0 0 0 2 1 4 1 1 1 1 51 72 35
0 0 0 0 0 0 0 0 0 0 0 0 0 0 0 0 0 0 0 0 0 0 0 0 0 0 0 0 0 0 0 0 0 0 0 0 0 0 0 0 2 14 2 0 0 2 9 4 7
0 0 0 0 0 0 0 0 0 0 0 0 0 0 0 0 0 0 0 0 0 0 0 0 0 0 0 0 0 0 0 0 0 0 0 0 0 0 0 0 0 1 16 8 0 0 0 0 1
0 0 0 0 0 0 0 0 0 0 0 0 0 0 0 0 0 0 0 0 0 0 0 0 0 0 0 0 0 0 0 0 0 0 0 0 0 0 0 0 0 0 3 21 54 23 3 3 3
0 0 0 0 0 0 0 0 0 0 0 0 0 0 0 0 0 0 0 0 0 0 0 0 0 0 0 0 0 0 0 0 0 0 0 0 0 0 0 0 0 0 0 1 2 1 7 0 0
0 0 0 0 0 0 0 0 0 0 0 0 0 0 0 0 0 0 0 0 0 0 0 0 0 0 0 0 0 0 0 0 0 0 0 0 0 0 0 0 0 0 1 0 2 2 0 0 0
0 0 0 0 0 0 0 0 0 0 0 0 0 0 0 0 0 0 0 0 0 0 0 0 0 0 0 0 0 0 0 0 0 0 0 0 0 0 0 0 0 0 0 2 1 1 4 0 0
0 0 0 0 0 0 0 0 0 0 0 0 0 0 0 0 0 0 0 0 0 0 0 0 0 0 0 0 0 0 0 0 0 0 0 0 0 0 0 0 0 0 0 1 0 0 2 3 0
0 0 0 0 0 0 0 0 0 0 0 0 0 0 0 0 0 0 0 0 0 0 0 0 0 0 0 0 0 0 0 0 0 0 0 0 0 0 0 0 3 0 0 0 1 0 6 5 0
0 0 0 0 0 0 0 0 0 0 0 0 0 0 0 0 0 0 0 0 0 0 0 0 0 0 0 0 0 0 0 0 0 0 0 0 0 0 0 0 1 1 2 3 2 2 21 23 7
0 0 0 0 0 0 0 0 0 0 0 0 0 0 0 0 0 0 0 0 0 0 0 0 0 0 0 0 0 0 0 0 0 0 0 0 0 0 0 0 1 1 0 0 1 3 4 36 33
0 0 0 0 0 0 0 0 0 0 0 0 0 0 0 0 0 0 0 0 0 0 0 0 0 0 0 0 0 0 0 0 0 0 0 0 0 0 0 0 0 1 0 1 0 2 4 5 3
0 0 0 0 0 0 0 0 0 0 0 0 0 0 0 0 0 0 0 0 0 0 0 0 0 0 0 0 0 0 0 0 0 0 0 0 0 0 0 0 0 2 2 4 3 0 1 23 16
0 0 0 0 0 0 0 0 0 0 0 0 0 0 0 0 0 0 0 0 0 0 0 0 0 0 0 0 0 0 0 0 0 0 0 0 0 0 0 0 1 1 2 2 5 5 4 5 25
0 0 0 0 0 0 0 0 0 0 0 0 0 0 0 0 0 0 0 0 0 0 0 0 0 0 0 0 0 0 0 0 0 0 0 0 0 0 0 0 1 2 0 1 4 4 4 6 39
0 0 0 0 0 0 0 0 0 0 0 0 0 0 0 0 0 0 0 0 0 0 0 0 0 0 0 0 0 0 0 0 0 0 0 0 0 0 1 0 4 1 1 4 6 7 10 26 48
CIN
0 0 0 0 0 0 0 0 0 0 0 0 0 0 0 0 0 0 0 0 0 0 0 -92 -5 -6 -5 -8 -7 -11 -4 -4 -1 0 -3 -7 -4 -2 -3 -12 -25 -58 -70 -38 -10 0 0 0 -2
0 0 0 0 0 0 0 0 0 0 0 0 0 0 0 0 0 0 0 0 -185 -102 -84 -171 -9 -7 -7 -10 -11 -12 -8 -6 -5 -6 -2 -6 -5 -3 0 0 -1 -3 -24 -26 -1 -1 0 -3 -4
0 0 0 0 0 0 0 0 0 0 0 0 0 0 0 0 0 0 0 0 -242 -289 -112 -54 -17 -10 -8 -6 -13 -13 -7 -6 -9 -10 -8 -7 -4 0 0 0 -1 -2 0 0 0 -1 0 -1 -1
0 0 0 0 0 0 0 0 0 0 0 0 0 0 0 0 0 0 0 0 0 0 -327 -89 -11 -8 -7 -9 -10 -12 -16 -11 -8 -6 -11 -10 -4 -3 0 -1 -1 -2 -1 -2 -2 -2 0 0 0
0 0 0 0 0 0 0 0 0 0 0 0 0 0 0 0 0 0 0 0 0 0 0 0 -86 -1 -5 -5 -6 -8 -9 -9 -15 -11 -8 -10 -10 -5 0 -1 -1 -2 0 -1 -1 -1 -1 0 -1
0 0 0 0 0 0 0 0 0 0 0 0 0 0 0 0 0 0 0 0 0 0 0 0 -33 -131 -65 -38 -13 -3 -3 -3 -3 -2 -3 -3 -4 -1 0 0 -2 -2 -2 -5 -1 0 0 0 0
0 0 0 0 0 0 0 0 0 0 0 0 0 0 0 0 0 0 0 0 0 0 0 0 0 0 -54 -141 -124 -91 -11 -5 -4 -2 -1 -2 -2 0 0 0 -1 -3 -2 -3 -1 -2 -1 -2 -1
0 0 0 0 0 0 0 0 0 0 0 0 0 0 0 0 0 0 0 0 0 0 0 0 0 0 0 0 0 -300 -261 -96 -44 -29 -52 -70 -18 -15 -4 -3 -5 -5 -3 -2 -2 -4 -3 -1 -1
0 0 0 0 0 0 0 0 0 0 0 0 0 0 0 0 0 0 0 0 0 0 0 0 0 0 0 0 0 0 0 0 -192 -106 -152 -173 -119 -52 -31 -31 -9 -13 -6 -5 -2 -4 -18 -37 -7
0 0 0 0 0 0 0 0 0 0 0 0 0 0 0 0 0 0 0 0 0 0 0 0 0 0 0 0 0 0 0 0 0 0 -86 -156 -133 -106 -63 -44 -40 -27 -14 -11 -11 -42 -97 -14 -22
0 0 0 0 0 0 0 0 0 0 0 0 0 0 0 0 0 0 0 0 0 0 0 0 0 0 0 0 0 0 0 0 0 0 0 -140 -91 -120 -86 -70 -94 -95 -44 -20 -13 -8 -12 -43 -57
0 0 0 0 0 0 0 0 0 0 0 0 0 0 0 0 0 0 0 0 0 0 0 0 0 0 0 0 0 0 0 0 0 0 0 0 0 -112 -104 -55 -72 -119 -90 -53 -55 -45 -56 0 -5
0 0 0 0 0 0 0 0 0 0 0 0 0 0 0 0 0 0 0 0 0 0 0 0 0 0 0 0 0 0 0 0 0 0 0 0 0 0 0 -69 -148 -86 -105 -120 0 -6 -21 -20 0
0 0 0 0 0 0 0 0 0 0 0 0 0 0 0 0 0 0 0 0 0 0 0 0 0 0 0 0 0 0 0 0 0 0 0 0 0 0 0 -1 -1 0 0 0 0 0 -42 -56 0
0 0 0 0 0 0 0 0 0 0 0 0 0 0 0 0 0 0 0 0 0 0 0 0 0 0 0 0 0 0 0 0 0 0 0 0 0 0 0 -4 0 -6 -3 0 0 0 -2 -101 -91
0 0 0 0 0 0 0 0 0 0 0 0 0 0 0 0 0 0 0 0 0 0 0 0 0 0 0 0 0 0 0 0 0 0 0 0 0 0 0 0 -8 -4 -29 0 0 0 -34 -106 -95
0 0 0 0 0 0 0 0 0 0 0 0 0 0 0 0 0 0 0 0 0 0 0 0 0 0 0 0 0 0 0 0 0 0 0 0 0 0 0 0 0 -5 -4 -21 0 0 -9 0 -27
0 0 0 0 0 0 0 0 0 0 0 0 0 0 0 0 0 0 0 0 0 0 0 0 0 0 0 0 0 0 0 0 0 0 0 0 0 0 0 0 0 0 -2 -2 0 -7 -1 -11 -42
0 0 0 0 0 0 0 0 0 0 0 0 0 0 0 0 0 0 0 0 0 0 0 0 0 0 0 0 0 0 0 0 0 0 0 0 0 0 0 0 0 0 0 0 -2 0 -4 0 0
0 0 0 0 0 0 0 0 0 0 0 0 0 0 0 0 0 0 0 0 0 0 0 0 0 0 0 0 0 0 0 0 0 0 0 0 0 0 0 0 0 0 0 0 0 0 0 0 0
0 0 0 0 0 0 0 0 0 0 0 0 0 0 0 0 0 0 0 0 0 0 0 0 0 0 0 0 0 0 0 0 0 0 0 0 0 0 0 0 0 0 0 0 -1 0 -2 0 0
0 0 0 0 0 0 0 0 0 0 0 0 0 0 0 0 0 0 0 0 0 0 0 0 0 0 0 0 0 0 0 0 0 0 0 0 0 0 0 0 0 0 0 0 0 0 0 -1 0
0 0 0 0 0 0 0 0 0 0 0 0 0 0 0 0 0 0 0 0 0 0 0 0 0 0 0 0 0 0 0 0 0 0 0 0 0 0 0 0 -1 0 0 0 -18 0 -5 -5 0
0 0 0 0 0 0 0 0 0 0 0 0 0 0 0 0 0 0 0 0 0 0 0 0 0 0 0 0 0 0 0 0 0 0 0 0 0 0 0 -1 -1 -2 0 0 0 0 -1 -1 -13
0 0 0 0 0 0 0 0 0 0 0 0 0 0 0 0 0 0 0 0 0 0 0 0 0 0 0 0 0 0 0 0 0 0 0 0 0 0 0 0 -8 -1 0 -1 0 0 -9 0 -8
0 0 0 0 0 0 0 0 0 0 0 0 0 0 0 0 0 0 0 0 0 0 0 0 0 0 0 0 0 0 0 0 0 0 0 0 0 0 0 0 0 -10 -4 -1 0 0 0 -5 -14
0 0 0 0 0 0 0 0 0 0 0 0 0 0 0 0 0 0 0 0 0 0 0 0 0 0 0 0 0 0 0 0 0 0 0 0 0 0 0 0 0 0 -4 -1 -1 0 0 -7 -4
0 0 0 0 0 0 0 0 0 0 0 0 0 0 0 0 0 0 0 0 0 0 0 0 0 0 0 0 0 0 0 0 0 0 0 0 0 0 0 0 0 0 0 0 0 0 -1 0 -9
0 0 0 0 0 0 0 0 0 0 0 0 0 0 0 0 0 0 0 0 0 0 0 0 0 0 0 0 0 0 0 0 0 0 0 0 0 0 0 0 0 0 0 0 0 0 0 -3 -7
0 0 0 0 0 0 0 0 0 0 0 0 0 0 0 0 0 0 0 0 0 0 0 0 0 0 0 0 0 0 0 0 0 0 0 0 0 0 0 0 0 0 0 0 0 0 -1 -3 0
Wind_Speed
4 4 2 5 6 7 3 2 2 3 3 4 1 6 6 3 2 2 5 4 10 7 6 4 5 3 3 5 5 5 6 6 8 7 7 7 7 7 7 7 7 8 7 8 9 8 9 8 12
3 2 5 3 7 5 3 2 2 2 2 4 4 2 4 2 1 4 6 11 11 8 4 5 6 4 2 3 4 4 5 5 5 6 6 7 6 5 5 6 6 6 7 7 6 6 9 8 10
1 5 5 6 4 4 3 2 2 3 4 3 3 4 2 2 3 3 5 9 9 10 7 2 5 4 3 2 2 3 4 5 5 5 6 8 7 6 5 5 4 4 4 4 5 9 10 11 12
4 6 6 7 4 1 2 2 3 2 2 5 3 5 2 2 3 6 8 7 7 9 11 13 4 2 1 1 1 1 2 3 4 4 5 5 7 8 6 4 4 4 4 6 6 10 11 12 13
5 4 6 5 2 1 1 2 2 3 3 5 3 2 2 2 3 5 7 7 10 10 9 11 17 13 5 3 1 1 1 1 3 4 5 6 6 6 6 5 5 6 6 8 10 11 11 12 12
5 4 6 3 3 2 3 3 0 2 1 2 5 3 3 1 3 6 7 8 8 8 9 9 12 14 15 12 2 5 4 4 3 3 4 5 6 6 8 7 7 9 9 9 10 13 14 14 12
8 6 4 4 2 2 2 4 2 1 2 3 4 3 2 2 4 5 6 7 8 9 10 9 8 9 15 15 15 13 12 11 8 6 5 6 6 8 9 9 9 10 11 10 10 9 11 13 12
6 6 4 1 1 3 3 2 2 2 0 1 1 3 3 3 4 4 6 7 8 9 8 8 8 8 8 8 17 13 14 13 11 10 10 10 7 5 7 8 9 10 10 9 8 9 7 9 10
3 7 2 3 4 3 2 1 3 2 1 3 2 4 1 9 6 5 5 6 6 7 8 7 8 8 7 7 8 11 13 12 11 8 8 6 4 5 6 5 8 11 10 9 10 8 11 7 10
7 5 7 4 3 2 1 1 3 3 4 2 2 3 5 6 4 6 5 5 5 6 7 7 7 8 7 6 6 6 6 5 6 7 7 4 4 4 6 7 8 11 11 10 10 10 11 7 4
3 3 3 1 1 1 2 2 3 1 3 5 6 6 5 4 5 7 4 4 5 3 5 7 7 7 7 7 5 4 4 4 4 7 7 6 4 3 3 3 3 3 6 4 5 4 4 5 5
6 2 2 1 1 1 1 3 4 5 6 4 8 6 5 7 7 6 6 5 5 6 6 6 7 7 7 4 5 4 5 5 5 5 7 5 4 5 4 3 3 1 2 3 3 2 3 3 5
4 3 2 2 1 2 2 4 4 6 6 1 6 5 7 7 7 5 5 5 6 7 5 6 6 6 6 6 4 5 5 4 5 5 6 5 5 5 5 4 2 2 2 4 4 4 2 3 3
1 2 1 0 2 2 2 2 2 3 2 3 3 5 6 8 8 5 5 5 6 6 6 5 7 7 6 6 6 4 4 5 4 4 6 6 4 4 5 5 3 1 3 2 7 6 5 2 3
2 2 3 5 5 4 4 2 3 5 1 4 4 3 1 2 6 6 5 7 6 5 6 7 7 7 7 7 5 5 5 5 5 5 6 7 6 5 5 3 3 3 3 4 4 8 3 4 3
6 5 5 4 7 2 4 7 3 7 3 4 3 5 5 6 7 7 7 6 6 6 7 7 7 7 7 7 5 4 5 5 5 5 5 8 8 7 5 4 4 3 2 1 1 3 5 4 2
8 2 4 7 3 4 4 6 3 7 7 7 4 5 6 7 8 6 7 6 6 6 6 7 7 8 7 7 5 5 6 5 4 5 5 8 8 8 6 5 4 4 2 3 2 2 3 4 4
4 4 4 5 5 5 5 9 7 8 6 6 4 5 6 7 6 6 7 7 7 6 6 6 5 7 6 4 4 3 4 4 4 6 7 7 6 8 7 5 6 4 3 4 4 5 5 4 4
1 2 4 5 2 3 5 6 7 9 6 5 4 6 7 7 5 7 8 6 6 6 8 7 7 7 6 6 6 3 5 3 4 6 9 9 8 8 7 5 6 5 6 5 6 6 4 2 3
1 2 5 5 2 3 8 7 5 7 4 4 6 7 6 6 7 7 7 7 7 6 6 7 7 7 6 5 4 2 3 3 2 4 6 8 10 9 7 6 7 6 6 6 5 6 2 2 3
3 1 3 4 8 2 5 2 4 4 6 8 8 5 6 6 6 5 6 6 6 6 6 8 7 7 6 7 5 4 2 3 3 7 7 8 9 9 8 8 7 7 4 5 5 5 5 5 2
4 2 2 4 4 4 5 6 2 2 4 5 5 6 5 6 5 4 6 4 5 5 5 5 5 5 7 6 6 5 4 5 4 5 6 7 6 7 8 8 8 8 7 7 7 6 6 5 4
6 3 3 1 1 3 5 2 4 0 2 3 3 4 4 4 4 4 6 6 5 6 5 5 6 6 7 8 7 6 6 4 5 5 8 6 5 6 5 8 8 8 7 8 7 6 5 6 6
6 0 3 3 2 3 2 3 4 4 5 4 3 4 3 2 3 3 4 3 4 4 5 5 7 5 7 7 8 7 9 10 9 8 7 7 6 6 6 7 10 6 8 9 8 7 7 7 7
9 6 5 7 6 4 1 2 8 3 4 5 6 5 2 3 3 4 4 5 5 5 6 6 7 7 7 8 6 7 7 8 8 8 7 10 7 6 7 8 8 9 11 9 9 8 7 7 6
4 3 6 5 3 6 3 6 4 2 3 6 6 4 2 3 3 6 6 6 6 6 6 7 8 8 7 8 8 7 6 6 7 7 7 7 7 8 9 8 9 10 9 11 11 7 8 8 7
3 4 2 2 1 3 4 6 2 3 4 3 4 4 5 7 7 6 7 6 7 6 7 7 8 7 8 9 8 10 7 9 9 10 8 7 9 8 10 9 10 11 10 10 10 9 10 10 9
2 3 2 3 5 8 4 6 5 3 6 4 3 3 5 5 4 4 6 6 6 7 8 8 7 7 9 9 8 9 10 9 10 10 10 10 10 10 10 10 10 12 10 11 10 9 11 11 9
3 1 2 1 4 4 6 7 2 5 6 5 5 4 4 5 5 5 5 6 6 7 7 8 10 9 11 11 11 12 11 11 11 10 10 10 12 12 11 11 12 12 13 11 11 11 14 15 11
1 2 4 4 5 3 2 10 2 3 5 3 4 4 5 4 5 5 6 7 8 7 8 10 11 11 12 12 13 13 12 12 12 12 11 11 12 12 11 11 12 12 13 12 12 13 14 13 12
Wind_Direction
0 19 56 41 58 64 51 1 243 20 80 315 11 93 118 66 50 192 316 358 328 299 288 250 210 191 192 154 152 157 155 157 161 161 153 143 143 141 137 134 135 140 145 145 144 152 157 140 137
337 49 43 78 80 68 286 312 51 1 163 162 81 102 50 76 29 326 352 336 333 337 269 226 229 174 163 199 163 163 160 156 165 170 164 157 157 154 153 154 159 159 162 163 170 159 141 143 152
93 41 74 79 81 115 152 35 327 353 31 193 106 53 53 341 350 342 317 319 358 10 1 188 227 196 145 140 150 178 172 166 176 183 184 182 167 175 175 177 166 165 178 178 178 163 154 143 141
44 10 37 75 85 74 117 311 309 299 6 42 116 75 37 22 6 354 334 354 16 20 25 28 341 283 212 123 68 112 209 203 199 200 208 206 193 189 184 171 168 173 183 197 180 151 146 138 140
40 63 58 71 10 336 290 273 354 38 13 20 359 143 62 49 92 26 12 17 27 21 26 39 27 12 7 334 290 329 321 267 249 238 222 224 224 209 203 174 178 177 169 162 151 149 149 147 150
47 87 64 133 209 252 286 296 33 79 305 350 87 99 204 29 70 17 20 32 34 41 26 25 27 20 42 26 298 5 354 340 322 295 281 264 258 240 231 216 200 190 185 175 167 159 158 157 162
97 72 152 146 190 322 254 319 74 94 4 351 137 106 264 58 69 53 42 35 32 31 36 31 26 11 22 37 41 36 37 27 10 351 303 279 277 272 264 244 219 205 199 187 179 172 169 170 167
104 94 93 44 157 280 327 348 11 67 259 353 111 183 210 168 122 78 54 50 49 33 30 21 24 30 25 23 21 20 23 32 38 22 12 353 316 276 265 250 240 229 217 196 204 177 171 172 179
105 65 103 175 162 268 348 51 10 322 343 31 10 149 149 134 141 70 38 29 28 34 27 15 15 16 18 32 19 21 14 11 7 14 13 12 343 308 267 243 231 228 217 198 199 187 180 192 178
69 87 194 186 197 250 12 62 310 359 356 32 66 59 98 129 112 104 87 73 45 23 13 17 16 14 9 22 13 8 11 10 9 2 354 357 342 306 291 275 238 230 205 191 179 195 229 164 178
40 117 176 118 259 343 349 344 320 39 288 219 192 178 155 130 125 119 110 90 78 55 32 14 14 17 21 15 6 8 4 3 1 9 355 329 339 305 307 302 278 198 227 177 176 212 200 158 151
90 68 139 169 38 354 291 276 287 201 223 251 203 172 152 143 151 145 132 103 79 59 41 22 22 22 22 16 13 2 13 360 5 359 356 345 355 355 351 289 295 264 216 177 141 168 137 156 156
88 175 157 163 172 234 228 253 255 262 261 317 143 168 151 146 153 142 121 104 95 66 44 32 30 31 19 23 11 8 2 4 354 4 0 351 356 354 349 324 322 308 221 161 154 90 25 183 209
210 101 77 62 345 337 312 297 5 301 314 204 163 193 177 165 168 125 116 92 71 72 57 36 34 26 22 29 14 5 355 353 356 357 356 357 349 353 354 336 323 267 161 125 124 112 214 248 219
58 31 357 30 12 0 329 17 265 319 327 213 219 215 164 142 81 79 83 78 67 46 35 30 34 19 22 12 17 6 359 3 4 359 352 356 359 348 352 333 316 287 290 224 208 164 269 219 203
39 52 20 22 359 330 57 281 299 5 352 259 292 49 83 57 80 73 72 77 67 52 36 27 26 22 21 10 1 4 2 357 358 1 357 356 353 348 350 349 323 282 175 132 349 169 197 231 202
13 360 17 327 34 337 56 275 283 7 359 287 294 80 101 99 75 74 76 71 71 70 52 33 24 20 11 4 359 1 0 12 354 356 357 352 351 350 352 333 318 307 230 197 206 253 226 223 236
326 355 327 263 335 360 287 266 318 329 315 337 35 108 102 89 78 85 72 58 48 47 46 43 29 18 2 357 345 360 357 1 354 357 355 346 348 344 343 331 331 323 273 249 227 225 208 216 226
201 230 264 267 302 318 271 290 324 339 25 7 114 112 95 78 64 62 55 46 44 35 36 25 28 16 20 12 7 7 3 344 346 354 343 342 344 342 337 331 325 323 299 251 252 242 214 188 150
232 312 316 289 351 9 321 322 39 11 1 40 80 65 64 67 54 57 54 43 37 28 18 20 20 18 22 14 2 351 317 314 304 325 332 340 335 335 334 328 321 310 305 284 249 243 219 163 186
339 311 313 272 322 204 272 336 15 18 38 55 44 58 61 81 75 52 52 38 26 25 11 20 10 7 15 5 1 359 327 333 340 350 343 344 335 332 333 329 327 319 300 288 272 246 222 232 183
338 251 285 296 11 291 11 278 26 45 46 48 45 55 69 70 59 42 43 33 12 16 18 9 12 13 14 0 11 15 354 340 330 322 319 318 314 330 334 329 332 331 324 308 286 262 242 207 197
245 315 297 253 221 14 342 57 271 156 211 219 107 91 74 72 62 36 29 10 2 9 359 352 2 11 6 6 11 2 346 305 301 313 322 309 311 315 327 335 327 333 324 314 304 271 244 230 226
288 103 68 68 97 23 284 111 261 208 211 188 158 152 123 82 57 47 38 327 328 346 2 355 1 355 2 359 353 355 344 331 329 328 325 323 318 318 321 320 325 315 315 312 312 292 257 234 222
16 18 349 359 9 244 231 353 263 300 289 209 154 165 140 24 27 32 342 335 338 356 359 359 2 345 346 348 341 338 324 316 309 310 310 311 310 311 306 316 313 315 309 300 295 301 273 244 234
10 50 127 300 291 274 322 235 272 349 29 103 117 138 41 3 12 3 342 0 7 5 5 359 352 336 339 340 329 315 299 315 299 289 292 295 295 295 303 306 312 303 297 297 295 286 282 250 228
349 40 191 234 133 38 252 286 95 82 59 84 120 111 60 26 11 354 346 32 12 355 346 343 335 328 329 324 313 322 314 319 303 297 291 298 296 294 300 307 303 297 291 287 284 282 278 262 234
72 162 355 7 334 306 288 284 261 237 218 203 189 36 45 52 10 4 14 9 347 332 330 331 325 310 315 313 313 314 311 309 300 298 296 299 297 292 288 292 292 301 288 290 283 276 276 262 250
3 0 57 155 160 217 302 261 244 287 221 157 129 148 38 358 353 14 354 338 316 315 324 324 327 319 324 321 320 316 315 310 301 299 295 297 300 293 284 290 294 302 299 291 286 278 271 257 250
256 254 162 133 265 234 235 278 42 87 90 131 56 33 2 344 5 2 337 319 321 323 327 328 321 321 323 319 317 312 311 307 304 305 301 302 293 290 285 293 293 299 298 290 291 283 283 245 245